This demonstration page uses our WeatherBlox Daily Observations layout. Learn more.

Left ArrowRight Arrow

Hourly Observations for August 11, 2016

Temp ( °F °C ) Dew Point ( °F °C ) Humidity (%) Winds ( mph kmh ) Pressure ( in mb ) Visibility ( mi km ) Precip ( " mm )
12:15 am 00:15 Mostly Cloudy 81 27 75 24 84 84 SSW 10 17 30.15 1021 10 16 0.00 0.00
12:35 am 00:35 Partly Cloudy 81 27 75 24 84 84 SSW 7 11 30.15 1021 10 16 0.00 0.00
12:55 am 00:55 Clear 81 27 75 24 84 84 SSW 13 20 30.15 1021 10 16 0.00 0.00
1:15 am 01:15 Clear 79 26 75 24 89 89 SSW 12 19 30.15 1021 10 16 0.00 0.00
1:35 am 01:35 Clear 79 26 75 24 89 89 S 7 11 30.15 1021 10 16 0.00 0.00
1:55 am 01:55 Clear 79 26 75 24 89 89 S 7 11 30.12 1020 10 16 0.00 0.00
2:15 am 02:15 Clear 79 26 75 24 89 89 SSW 13 20 30.12 1020 10 16 0.00 0.00
2:35 am 02:35 Clear 77 25 75 24 94 94 SSW 8 13 30.12 1020 10 16 0.00 0.00
2:55 am 02:55 Clear 77 25 75 24 94 94 SSW 7 11 30.12 1020 10 16 0.00 0.00
3:15 am 03:15 Clear 77 25 75 24 94 94 SW 6 9 30.12 1020 10 16 0.00 0.00
3:35 am 03:35 Clear 77 25 75 24 94 94 SW 8 13 30.12 1020 10 16 0.00 0.00
3:55 am 03:55 Clear 77 25 75 24 94 94 SSW 9 15 30.12 1020 10 16 0.00 0.00
4:15 am 04:15 Clear 77 25 75 24 94 94 SSW 7 11 30.12 1020 10 16 0.00 0.00
4:35 am 04:35 Clear 77 25 75 24 94 94 SSW 10 17 30.12 1020 10 16 0.00 0.00
4:55 am 04:55 Clear 77 25 75 24 94 94 SSW 7 11 30.12 1020 10 16 0.00 0.00
5:15 am 05:15 Clear 77 25 75 24 94 94 SSW 9 15 30.12 1020 10 16 0.00 0.00
5:35 am 05:35 Clear 77 25 75 24 94 94 SW 10 17 30.15 1021 10 16 0.00 0.00
5:55 am 05:55 Clear 77 25 75 24 94 94 SSW 8 13 30.15 1021 10 16 0.00 0.00
6:15 am 06:15 Clear 75 24 73 23 94 94 SW 8 13 30.15 1021 10 16 0.00 0.00
6:35 am 06:35 Sunny 75 24 75 24 100 100 undefined N/A 30.15 1021 10 16 0.00 0.00
6:55 am 06:55 Sunny 77 25 75 24 94 94 SSW 8 13 30.15 1021 10 16 0.00 0.00
7:15 am 07:15 Sunny 77 25 75 24 94 94 SSW 9 15 30.15 1021 10 16 0.00 0.00
7:35 am 07:35 Sunny 79 26 75 24 89 89 undefined N/A 30.15 1021 10 16 0.00 0.00
7:55 am 07:55 Sunny 79 26 75 24 89 89 SSW 12 19 30.15 1021 10 16 0.00 0.00
8:15 am 08:15 Sunny 81 27 75 24 84 84 SSW 10 17 30.15 1021 10 16 0.00 0.00
8:35 am 08:35 Sunny 81 27 77 25 89 89 SW 3 6 30.15 1021 10 16 0.00 0.00
8:55 am 08:55 Sunny 82 28 77 25 84 84 S 3 6 30.15 1021 10 16 0.00 0.00
9:15 am 09:15 Sunny 84 29 77 25 79 79 SSW 9 15 30.15 1021 10 16 0.00 0.00
9:35 am 09:35 Sunny 86 30 75 24 70 70 Calm 30.15 1021 10 16 0.00 0.00
9:55 am 09:55 Sunny 86 30 75 24 70 70 SW 7 11 30.15 1021 10 16 0.00 0.00
10:15 am 10:15 Sunny 86 30 77 25 75 75 SSW 3 6 30.15 1021 10 16 0.00 0.00
10:35 am 10:35 Sunny 88 31 77 25 70 70 Calm 30.15 1021 10 16 0.00 0.00
10:55 am 10:55 Sunny 91 33 77 25 63 63 SW 3 6 30.12 1020 10 16 0.00 0.00
11:15 am 11:15 Sunny 91 33 77 25 63 63 SSW 6 9 30.12 1020 10 16 0.00 0.00
11:35 am 11:35 Sunny 90 32 75 24 63 63 SSE 3 6 30.12 1020 10 16 0.00 0.00
11:55 am 11:55 Sunny 91 33 75 24 59 59 SW 6 9 30.12 1020 10 16 0.00 0.00
12:15 pm 12:15 Sunny 91 33 75 24 59 59 WSW 6 9 30.09 1019 10 16 0.00 0.00
12:35 pm 12:35 Sunny 91 33 73 23 56 56 S 5 7 30.09 1019 10 16 0.00 0.00
12:55 pm 12:55 Sunny 95 35 75 24 53 53 WSW 3 6 30.09 1019 10 16 0.00 0.00
1:15 pm 13:15 Partly Cloudy 93 34 77 25 59 59 WSW 7 11 30.06 1018 10 16 0.00 0.00
1:35 pm 13:35 Partly Cloudy 95 35 75 24 53 53 SW 10 17 30.06 1018 10 16 0.00 0.00
1:55 pm 13:55 Partly Cloudy 95 35 73 23 50 50 SSW 16 26 30.06 1018 10 16 0.00 0.00
2:15 pm 14:15 Partly Cloudy 97 36 73 23 47 47 SSW 8 13 30.06 1018 10 16 0.00 0.00
2:35 pm 14:35 Partly Cloudy 97 36 73 23 47 47 WSW 12 19 30.06 1018 10 16 0.00 0.00
2:55 pm 14:55 Partly Cloudy 97 36 73 23 47 47 SSW 17 28 30.03 1017 10 16 0.00 0.00
3:15 pm 15:15 Sunny 97 36 75 24 50 50 SSW 15 24 30.03 1017 10 16 0.00 0.00
3:35 pm 15:35 Sunny 95 35 73 23 50 50 WSW 13 20 30.03 1017 10 16 0.00 0.00
3:55 pm 15:55 Sunny 95 35 75 24 53 53 SW 13 20 30.03 1017 10 16 0.00 0.00
4:15 pm 16:15 Sunny 95 35 73 23 50 50 SSW 13 20 30.03 1017 10 16 0.00 0.00
4:35 pm 16:35 Sunny 95 35 73 23 50 50 SSW 16 26 30.00 1016 10 16 0.00 0.00
4:55 pm 16:55 Sunny 95 35 75 24 53 53 SSW 14 22 30.00 1016 10 16 0.00 0.00
5:15 pm 17:15 Sunny 95 35 73 23 50 50 SSW 20 31 30.00 1016 10 16 0.00 0.00
5:35 pm 17:35 Sunny 93 34 75 24 56 56 SW 13 20 30.00 1016 10 16 0.00 0.00
5:55 pm 17:55 Sunny 91 33 77 25 63 63 SSW 16 26 30.00 1016 10 16 0.00 0.00
6:15 pm 18:15 Sunny 91 33 75 24 59 59 SW 13 20 29.97 1015 10 16 0.00 0.00
6:35 pm 18:35 Partly Cloudy 91 33 77 25 63 63 S 16 26 30.00 1016 10 16 0.00 0.00
6:55 pm 18:55 Sunny 91 33 77 25 63 63 SSW 14 22 30.00 1016 10 16 0.00 0.00
7:15 pm 19:15 Sunny 90 32 77 25 67 67 S 14 22 30.00 1016 10 16 0.00 0.00
7:35 pm 19:35 Sunny 90 32 77 25 67 67 SSW 12 19 30.00 1016 10 16 0.00 0.00
7:55 pm 19:55 Sunny 88 31 77 25 70 70 SSW 8 13 30.00 1016 10 16 0.00 0.00
8:15 pm 20:15 Clear 88 31 75 24 66 66 S 10 17 30.00 1016 10 16 0.00 0.00
8:35 pm 20:35 Clear 86 30 75 24 70 70 S 5 7 30.03 1017 10 16 0.00 0.00
8:55 pm 20:55 Clear 86 30 75 24 70 70 S 6 9 30.03 1017 10 16 0.00 0.00
9:15 pm 21:15 Clear 86 30 75 24 70 70 S 6 9 30.03 1017 10 16 0.00 0.00
9:35 pm 21:35 Clear 86 30 75 24 70 70 S 6 9 30.03 1017 10 16 0.00 0.00
9:55 pm 21:55 Partly Cloudy 86 30 75 24 70 70 S 6 9 30.06 1018 10 16 0.00 0.00
10:15 pm 22:15 Partly Cloudy 84 29 75 24 74 74 S 6 9 30.03 1017 10 16 0.00 0.00
10:35 pm 22:35 Clear 82 28 75 24 79 79 S 7 11 30.03 1017 10 16 0.00 0.00
10:55 pm 22:55 Clear 82 28 75 24 79 79 S 7 11 30.03 1017 10 16 0.00 0.00
11:15 pm 23:15 Clear 82 28 75 24 79 79 SSW 13 20 30.03 1017 10 16 0.00 0.00
11:35 pm 23:35 Clear 82 28 75 24 79 79 S 10 17 30.03 1017 10 16 0.00 0.00
11:55 pm 23:55 Clear 81 27 75 24 84 84 SSW 12 19 30.03 1017 10 16 0.00 0.00

Powered by AerisWeather